TimeCST,TemperatureF,Dew PointF,Humidity,Sea Level PressureIn,VisibilityMPH,Wind Direction,Wind SpeedMPH,Gust SpeedMPH,PrecipitationIn,Events,Conditions,WindDirDegrees,DateUTC
12:15 AM,33.1,28.4,83,30.09,10.0,Calm,Calm,-,N/A,,Clear,0,2012-11-29 06:15:00
12:35 AM,31.3,27.0,84,30.07,10.0,Calm,Calm,-,N/A,,Clear,0,2012-11-29 06:35:00
12:55 AM,31.5,28.2,88,30.06,10.0,Calm,Calm,-,N/A,,Clear,0,2012-11-29 06:55:00
1:15 AM,32.2,28.2,85,30.05,10.0,South,3.5,-,N/A,,Clear,180,2012-11-29 07:15:00
1:35 AM,32.4,28.4,85,30.05,10.0,Calm,Calm,-,N/A,,Clear,0,2012-11-29 07:35:00
1:55 AM,32.2,28.2,85,30.05,10.0,Calm,Calm,-,N/A,,Clear,0,2012-11-29 07:55:00
2:15 AM,30.2,27.1,88,30.05,10.0,Calm,Calm,-,N/A,,Clear,0,2012-11-29 08:15:00
2:35 AM,28.4,25.9,90,30.05,10.0,Calm,Calm,-,N/A,,Clear,0,2012-11-29 08:35:00
2:55 AM,28.2,26.1,92,30.05,10.0,Calm,Calm,-,N/A,,Clear,0,2012-11-29 08:55:00
3:35 AM,28.2,26.1,92,30.03,10.0,Calm,Calm,-,N/A,,Clear,0,2012-11-29 09:35:00
3:55 AM,27.1,25.2,92,30.02,10.0,Calm,Calm,-,N/A,,Clear,0,2012-11-29 09:55:00
4:15 AM,26.1,24.3,93,30.02,10.0,Calm,Calm,-,N/A,,Clear,0,2012-11-29 10:15:00
4:35 AM,26.6,25.0,94,30.01,10.0,Calm,Calm,-,N/A,,Clear,0,2012-11-29 10:35:00
4:55 AM,25.2,23.2,92,30.01,10.0,Calm,Calm,-,N/A,,Clear,0,2012-11-29 10:55:00
5:15 AM,24.4,22.8,94,30.01,10.0,Calm,Calm,-,N/A,,Clear,0,2012-11-29 11:15:00
5:35 AM,24.8,23.4,94,30.00,10.0,Calm,Calm,-,N/A,,Clear,0,2012-11-29 11:35:00
5:55 AM,25.0,23.7,95,30.00,10.0,Calm,Calm,-,N/A,,Clear,0,2012-11-29 11:55:00
6:15 AM,25.5,24.4,96,30.00,7.0,Calm,Calm,-,N/A,,Clear,0,2012-11-29 12:15:00
6:35 AM,25.3,24.3,96,30.00,7.0,Calm,Calm,-,N/A,,Clear,0,2012-11-29 12:35:00
6:55 AM,24.8,23.7,96,30.00,10.0,Calm,Calm,-,N/A,,Clear,0,2012-11-29 12:55:00
7:15 AM,24.1,23.0,96,30.01,7.0,Calm,Calm,-,N/A,,Clear,0,2012-11-29 13:15:00
7:35 AM,23.0,21.4,94,30.00,10.0,Calm,Calm,-,N/A,,Clear,0,2012-11-29 13:35:00
7:55 AM,23.0,21.7,95,30.00,7.0,Calm,Calm,-,N/A,,Clear,0,2012-11-29 13:55:00
8:15 AM,22.8,20.7,91,30.00,10.0,Calm,Calm,-,N/A,,Clear,0,2012-11-29 14:15:00
8:35 AM,25.2,23.7,94,30.00,10.0,Calm,Calm,-,N/A,,Clear,0,2012-11-29 14:35:00
8:55 AM,31.1,29.7,94,30.00,10.0,Calm,Calm,-,N/A,,Clear,0,2012-11-29 14:55:00
9:15 AM,31.8,29.5,91,30.00,10.0,NNW,3.5,-,N/A,,Clear,330,2012-11-29 15:15:00
9:35 AM,34.7,31.6,89,30.00,10.0,Calm,Calm,-,N/A,,Clear,0,2012-11-29 15:35:00
9:55 AM,38.3,33.3,82,30.01,10.0,Calm,Calm,-,N/A,,Clear,0,2012-11-29 15:55:00
10:15 AM,42.6,35.4,76,30.01,10.0,SW,4.6,-,N/A,,Clear,220,2012-11-29 16:15:00
10:35 AM,45.0,36.0,71,30.01,10.0,West,3.5,-,N/A,,Clear,280,2012-11-29 16:35:00
10:55 AM,47.7,37.0,67,30.00,10.0,WSW,4.6,-,N/A,,Clear,250,2012-11-29 16:55:00
11:15 AM,48.4,36.5,64,30.00,10.0,WSW,6.9,-,N/A,,Clear,240,2012-11-29 17:15:00
11:35 AM,49.1,36.0,61,29.99,10.0,SW,5.8,-,N/A,,Clear,230,2012-11-29 17:35:00
11:55 AM,50.2,36.0,58,29.97,10.0,SSW,3.5,-,N/A,,Clear,200,2012-11-29 17:55:00
12:15 PM,51.8,35.6,54,29.97,10.0,SW,4.6,-,N/A,,Clear,230,2012-11-29 18:15:00
12:35 PM,53.6,35.2,50,29.96,10.0,SSW,4.6,-,N/A,,Clear,200,2012-11-29 18:35:00
12:55 PM,54.7,34.9,47,29.95,10.0,SW,3.5,-,N/A,,Clear,220,2012-11-29 18:55:00
1:15 PM,55.6,34.5,45,29.95,10.0,SSW,3.5,-,N/A,,Clear,200,2012-11-29 19:15:00
1:35 PM,56.8,34.0,42,29.93,10.0,South,5.8,-,N/A,,Clear,190,2012-11-29 19:35:00
1:55 PM,57.7,33.1,39,29.93,10.0,South,3.5,-,N/A,,Clear,190,2012-11-29 19:55:00
2:15 PM,58.5,32.0,37,29.93,10.0,SW,5.8,-,N/A,,Clear,220,2012-11-29 20:15:00
2:35 PM,59.2,31.8,36,29.92,10.0,SSW,5.8,-,N/A,,Clear,210,2012-11-29 20:35:00
2:55 PM,59.9,30.9,33,29.92,10.0,SSW,5.8,-,N/A,,Clear,210,2012-11-29 20:55:00
3:15 PM,59.5,31.1,34,29.91,10.0,SSW,5.8,-,N/A,,Clear,200,2012-11-29 21:15:00
3:35 PM,59.4,31.1,34,29.92,10.0,SW,4.6,-,N/A,,Clear,220,2012-11-29 21:35:00
3:55 PM,59.0,31.6,36,29.93,10.0,SSW,3.5,-,N/A,,Clear,210,2012-11-29 21:55:00
4:15 PM,57.6,32.0,38,29.92,10.0,SSW,4.6,-,N/A,,Clear,200,2012-11-29 22:15:00
4:35 PM,55.2,32.0,41,29.92,10.0,South,4.6,-,N/A,,Clear,180,2012-11-29 22:35:00
4:55 PM,52.7,32.0,45,29.92,10.0,Calm,Calm,-,N/A,,Clear,0,2012-11-29 22:55:00
5:15 PM,49.8,32.0,50,29.93,10.0,SW,3.5,-,N/A,,Clear,220,2012-11-29 23:15:00
5:35 PM,47.3,32.0,55,29.93,10.0,SSW,4.6,-,N/A,,Clear,210,2012-11-29 23:35:00
5:55 PM,46.9,32.0,56,29.93,10.0,SSW,5.8,-,N/A,,Clear,200,2012-11-29 23:55:00
6:15 PM,45.1,31.8,60,29.94,10.0,SSW,5.8,-,N/A,,Clear,200,2012-11-30 00:15:00
6:35 PM,45.1,32.0,60,29.95,10.0,SSW,5.8,-,N/A,,Clear,200,2012-11-30 00:35:00
6:55 PM,44.6,32.0,61,29.95,10.0,South,6.9,-,N/A,,Clear,190,2012-11-30 00:55:00
7:15 PM,44.4,32.4,63,29.95,10.0,SSW,8.1,-,N/A,,Clear,200,2012-11-30 01:15:00
7:35 PM,43.9,32.4,64,29.95,10.0,South,5.8,-,N/A,,Clear,190,2012-11-30 01:35:00
7:55 PM,43.5,33.3,67,29.95,10.0,SSW,3.5,-,N/A,,Clear,210,2012-11-30 01:55:00
8:15 PM,44.6,34.7,68,29.96,10.0,SSW,4.6,-,N/A,,Clear,210,2012-11-30 02:15:00
8:35 PM,43.9,34.5,70,29.96,10.0,SSW,4.6,-,N/A,,Clear,210,2012-11-30 02:35:00
8:55 PM,42.8,34.7,73,29.97,10.0,Calm,Calm,-,N/A,,Clear,0,2012-11-30 02:55:00
9:15 PM,37.9,32.2,80,29.98,10.0,Calm,Calm,-,N/A,,Clear,0,2012-11-30 03:15:00
9:35 PM,37.8,32.4,81,29.98,10.0,Calm,Calm,-,N/A,,Clear,0,2012-11-30 03:35:00
9:55 PM,37.0,32.0,82,29.99,10.0,Calm,Calm,-,N/A,,Clear,0,2012-11-30 03:55:00
10:15 PM,35.2,31.6,87,29.97,10.0,Calm,Calm,-,N/A,,Clear,0,2012-11-30 04:15:00
10:35 PM,37.8,31.8,79,29.97,10.0,WSW,4.6,-,N/A,,Clear,250,2012-11-30 04:35:00
10:55 PM,37.8,30.7,76,29.97,10.0,WSW,5.8,-,N/A,,Clear,250,2012-11-30 04:55:00
11:15 PM,39.0,31.6,75,29.98,10.0,WNW,5.8,-,N/A,,Clear,300,2012-11-30 05:15:00
11:35 PM,37.0,31.1,79,29.98,10.0,West,5.8,-,N/A,,Clear,280,2012-11-30 05:35:00
11:55 PM,38.5,31.3,75,30.00,10.0,NW,8.1,-,N/A,,Clear,310,2012-11-30 05:55:00